{"data":{"norad_id":67592,"epoch":"2026-09-18T10:24:46.555488Z","epoch_age_seconds":247750,"freshness":"STALE","line1":"1 67592U 26018D   26261.43387217  .00014757  00000+0  45853-3 0  9999","line2":"2 67592  97.2845 324.9196 0000286  98.3723 261.7553 15.33445087 36871","mean_motion":15.33445087,"eccentricity":2.86e-5,"inclination_deg":97.2845,"raan_deg":324.9196,"arg_perigee_deg":98.3723,"mean_anomaly_deg":261.7553,"bstar":0.00045853,"rev_number":3687,"period_min":93.906199329067,"perigee_km":465.34718638177,"apogee_km":465.73864487294,"semimajor_km":6843.6799156274,"source":"CELESTRAK","updated_at":"2026-09-20T09:00:43.601605Z"}}